This demonstration page uses our WeatherBlox Daily Observations layout. Learn more.

Left ArrowRight Arrow

39.01783, -85.05884

Hourly Observations for November 17, 2020

Temp ( °F °C ) Dew Point ( °F °C ) Humidity (%) Winds ( mph kmh ) Pressure ( in mb ) Visibility ( mi km ) Precip ( " mm )
12:52 am 00:52 Clear 45 7.2 25 -3.9 46 46 WSW 7 11 30.07 1018 10 16.0934 0 0
1:52 am 01:52 Clear 42 5.6 27 -2.8 55 55 W 10 17 30.08 1019 10 16.0934 0 0
2:52 am 02:52 Mostly Clear 46 7.8 30 -1.1 54 54 WNW 20 31 30.1 1019 10 16.0934 0 0
3:52 am 03:52 Partly Cloudy 44 6.7 31 -0.6 60 60 WNW 17 28 30.13 1020 10 16.0934 0 0
4:52 am 04:52 Mostly Clear 42 5.6 31 -0.6 65 65 WNW 20 31 30.16 1021 10 16.0934 0 0
5:52 am 05:52 Mostly Clear 41 5 32 0 70 70 WNW 18 30 30.21 1023 10 16.0934 0 0
6:52 am 06:52 Mostly Clear 39 3.9 31 -0.6 73 73 WNW 20 31 30.24 1024 10 16.0934 0 0
7:52 am 07:52 Mostly Sunny 38 3.3 30 -1.1 73 73 WNW 16 26 30.28 1025 10 16.0934 0 0
8:52 am 08:52 Mostly Sunny 39 3.9 29 -1.7 67 67 NW 20 31 30.33 1027 10 16.0934 0 0
9:41 am 09:41 Mostly Cloudy 40 4.4 29 -1.7 65 65 NW 16 26 30.4 1029 10 16.0934 0 0
9:52 am 09:52 Mostly Cloudy 38 3.3 27 -2.8 65 65 WNW 18 30 30.38 1029 10 16.0934 0 0
10:29 am 10:29 Mostly Cloudy 40 4.4 27 -2.8 60 60 NW 16 26 30.43 1030 10 16.0934 0 0
10:52 am 10:52 Mostly Cloudy 40 4.4 26 -3.3 58 58 WNW 18 30 30.41 1030 10 16.0934 0 0
11:52 am 11:52 Partly Cloudy 42 5.6 24 -4.4 49 49 WNW 16 26 30.43 1030 10 16.0934 0 0
12:52 pm 12:52 Mostly Sunny 42 5.6 23 -5 47 47 NW 16 26 30.43 1031 10 16.0934 0 0
1:52 pm 13:52 Partly Cloudy 44 6.7 23 -5 43 43 NW 21 33 30.45 1031 10 16.0934 0 0
2:52 pm 14:52 Partly Cloudy 42 5.6 22 -5.6 45 45 NW 16 26 30.45 1031 10 16.0934 0 0
3:52 pm 15:52 Partly Cloudy 42 5.6 21 -6.1 43 43 NW 14 22 30.47 1032 10 16.0934 0 0
4:52 pm 16:52 Sunny 40 4.4 20 -6.7 45 45 NW 14 22 30.48 1032 10 16.0934 0 0
5:52 pm 17:52 Clear 37 2.8 20 -6.7 50 50 NW 10 17 30.49 1033 10 16.0934 0 0
6:52 pm 18:52 Clear 32 0 21 -6.1 64 64 W 9 15 30.52 1034 10 16.0934 0 0
7:52 pm 19:52 Clear 32 0 21 -6.1 64 64 W 6 9 30.52 1034 10 16.0934 0 0
8:52 pm 20:52 Clear 31 -0.6 20 -6.7 64 64 W 6 9 30.53 1034 10 16.0934 0 0
9:52 pm 21:52 Clear 31 -0.6 20 -6.7 64 64 W 5 7 30.53 1034 10 16.0934 0 0
10:52 pm 22:52 Clear 30 -1.1 19 -7.2 64 64 W 8 13 30.53 1034 10 16.0934 0 0
11:52 pm 23:52 Clear 29 -1.7 20 -6.7 69 69 W 6 9 30.54 1034 10 16.0934 0 0

Powered by AerisWeather